Left ArrowRight Arrow

32.19382, -80.73816

Hourly Observations for May 7, 2016

Temp ( °F °C ) Dew Point ( °F °C ) Humidity (%) Winds ( mph kmh ) Pressure ( in mb ) Visibility ( mi km ) Precip ( " mm )
12:15 am 00:15 Clear 57 14 52 11 82 82 Calm 29.91 1013 10 16 0.00 0.03
12:35 am 00:35 Clear 57 14 52 11 82 82 Calm 29.91 1013 10 16 0.00 0.03
12:55 am 00:55 Clear 55 13 52 11 88 88 Calm 29.91 1013 10 16 0.00 0.03
1:15 am 01:15 Clear 55 13 52 11 88 88 Calm 29.91 1013 10 16 0.00 0.03
1:35 am 01:35 Clear 54 12 52 11 94 94 Calm 29.91 1013 10 16 0.00 0.03
1:55 am 01:55 Clear 54 12 52 11 94 94 Calm 29.91 1013 10 16 0.00 0.03
2:15 am 02:15 Clear 54 12 52 11 94 94 Calm 29.91 1013 10 16 0.00 0.03
2:35 am 02:35 Clear 54 12 52 11 94 94 Calm 29.88 1012 10 16 0.00 0.03
2:55 am 02:55 Clear 54 12 52 11 94 94 Calm 29.88 1012 10 16 0.00 0.03
3:15 am 03:15 Clear 52 11 52 11 100 100 WSW 3 6 29.88 1012 10 16 0.00 0.03
3:35 am 03:35 Clear 52 11 52 11 100 100 WSW 5 7 29.88 1012 10 16 0.00 0.03
3:55 am 03:55 Clear 54 12 52 11 94 94 WSW 5 7 29.88 1012 10 16 0.00 0.03
4:15 am 04:15 Clear 54 12 52 11 94 94 WSW 5 7 29.91 1013 10 16 0.00 0.03
4:35 am 04:35 Clear 54 12 54 12 100 100 WSW 5 7 29.91 1013 10 16 0.00 0.03
4:55 am 04:55 Clear 55 13 54 12 94 94 WSW 5 7 29.91 1013 10 16 0.00 0.03
5:15 am 05:15 Clear 54 12 54 12 100 100 WSW 3 6 29.91 1013 10 16 0.00 0.03
5:35 am 05:35 Clear 54 12 52 11 94 94 WSW 5 7 29.91 1013 10 16 0.00 0.03
6:50 am 06:50 Mostly Sunny 54 12 52 11 94 94 W 5 7 29.94 1014 10 16 N/A
7:50 am 07:50 Mostly Sunny 61 16 54 12 77 77 W 6 9 29.94 1014 10 16 N/A
8:50 am 08:50 Mostly Sunny 68 20 52 11 56 56 WNW 9 15 29.97 1015 10 16 N/A
10:50 am 10:50 Mostly Sunny 75 24 48 9 39 39 WNW 8 13 29.97 1015 10 16 N/A
11:50 am 11:50 Mostly Sunny 79 26 45 7 30 30 WNW 8 13 29.97 1015 10 16 N/A
12:50 pm 12:50 Mostly Sunny 81 27 45 7 28 28 WNW 9 15 29.97 1015 10 16 N/A
1:50 pm 13:50 Mostly Sunny 81 27 43 6 26 26 W 12 19 29.94 1014 10 16 N/A
2:50 pm 14:50 Mostly Sunny 77 25 43 6 30 30 SW 12 19 29.91 1013 10 16 N/A
3:50 pm 15:50 Mostly Sunny 79 26 43 6 28 28 W 7 11 29.91 1013 10 16 N/A
5:50 pm 17:50 Mostly Sunny 79 26 43 6 28 28 W 10 17 29.88 1012 10 16 N/A
6:50 pm 18:50 Mostly Sunny 79 26 45 7 30 30 WSW 9 15 29.91 1013 10 16 N/A
7:50 pm 19:50 Mostly Sunny 77 25 46 8 34 34 WSW 9 15 29.91 1013 10 16 N/A
8:15 pm 20:15 Clear 73 23 48 9 41 41 SSW 5 7 29.91 1013 10 16 0.00 0.03
8:35 pm 20:35 Clear 72 22 48 9 44 44 SSW 3 6 29.91 1013 10 16 0.00 0.03
8:55 pm 20:55 Clear 72 22 48 9 44 44 WSW 5 7 29.91 1013 10 16 0.00 0.03
9:15 pm 21:15 Clear 72 22 48 9 44 44 SW 5 7 29.91 1013 10 16 0.00 0.03
9:35 pm 21:35 Clear 70 21 48 9 46 46 WSW 6 9 29.94 1014 10 16 0.00 0.03
9:55 pm 21:55 Clear 72 22 48 9 44 44 SW 5 7 29.94 1014 10 16 0.00 0.03
10:15 pm 22:15 Clear 70 21 50 10 50 50 SSW 6 9 29.94 1014 10 16 0.00 0.03
10:35 pm 22:35 Clear 70 21 50 10 50 50 WSW 5 7 29.94 1014 10 16 0.00 0.03
10:55 pm 22:55 Clear 70 21 50 10 50 50 SW 6 9 29.94 1014 10 16 0.00 0.03
11:15 pm 23:15 Clear 70 21 52 11 53 53 SSW 5 7 29.94 1014 10 16 0.00 0.03
11:35 pm 23:35 Clear 68 20 52 11 56 56 SSW 6 9 29.94 1014 10 16 0.00 0.03
11:55 pm 23:55 Clear 70 21 54 12 57 57 SSW 6 9 29.94 1014 10 16 0.00 0.03

Powered by Vaisala Xweather